{"data":{"norad_id":44882,"intl_designator":"2019-093D","name":"TIANYAN 02","alt_names":[],"object_type":"PAYLOAD","status":"ACTIVE","operator":null,"country":"PRC","launch_date":"2019-12-20","launch_site_code":"TAISC","launch_vehicle":null,"mission":null,"orbit_class":"UNKNOWN","rcs_meters":null,"size_class":null,"mass_kg":null,"dimensions":null,"purposes":[],"wikipedia_slug":null,"has_3d_model":false,"image_url":null,"decayed_at":null,"tle_current":{"epoch":"2026-05-25T05:58:49.252224Z","epoch_age_seconds":53185,"freshness":"FRESH","line1":"1 44882U 19093D   26145.24918116  .00006425  00000+0  45724-3 0  9999","line2":"2 44882  97.7925 239.8271 0015705 101.4603 258.8387 15.04891199349163","mean_motion":15.04891199,"eccentricity":0.0015705,"inclination_deg":97.7925,"raan_deg":239.8271,"arg_perigee_deg":101.4603,"mean_anomaly_deg":258.8387,"bstar":0.00045724,"rev_number":34916,"period_min":95.687980696337,"perigee_km":540.95615045163,"apogee_km":562.72320719983,"semimajor_km":6929.9766788257,"source":"CELESTRAK","updated_at":"2026-05-25T13:37:56.038941Z"}}}